Find Starlink 35849

NORAD ID: 66348 Int'l Des: 2025-254 Owner: SPXS Country: US Constellation: starlink operational
LEOCIRCULAR

实时位置

正在加载3D地球...

关于 Starlink 35849

正在加载描述...

即将过境

Passes for default location (London). Set your location on the main map for personalized predictions.

高度历史

Loading altitude history...

两行轨道根数

1 66348U 25254A 26107.10637283 .00014636 00000-0 50511-3 0 9996
2 66348 53.1614 54.2806 0002033 92.0729 268.0505 15.30212217 26010
Epoch: Apr 17, 2026 • Age: 17 hours

当前状态

高度 494.6 km
速度 7.62 km/s
星下点 -52.07°S, 159.59°W
发射日期 Nov 6, 2025
运行时间 0.4 years
类型 internet

技术详情

分类 Payload
质量 575.00 kg
干质量 530.00 kg
总质量 575.00 kg
长度 0.30 m
直径 4.10 m
跨度 29.00 m
形状 Box + pan
制造商 SPXS
平台类型 Starlink V2MO
阶段状态 In Orbit
所有者/国家 SPXS/US

Most Searched